Address 0x50bba4554d67d9298428a9358648039f14971581

 
Txn Hash
Block
From
To
Value [Txn Fee]
0xc9b942974fc3a0e1f946655f722bd5d3d87a63f33732d5560e0a819bd561913f43621072021-01-27 16:49:0511 mins ago0x50bba4554d67d9298428a9358648039f14971581OUT 0x0667eed0a0aab930af74a3dfedd263a73994f2160 BNB0.0018312
0x391fd8a45d5cf9ec402a774ce9d1ecb2730c76a6d6bd8391beef226efe3b829843620462021-01-27 16:46:0214 mins ago0x50bba4554d67d9298428a9358648039f14971581OUT 0x0667eed0a0aab930af74a3dfedd263a73994f2160 BNB0.00150128
0xeee56a1faf30508ae0099571fb9b7c0261b5d97005e74901fa43a1e3939109fa43617142021-01-27 16:29:2630 mins ago0x50bba4554d67d9298428a9358648039f14971581OUT 0x004065d34c6b18ce4370ced1cebde94865dbfafe0 BNB0.01108876
0xb1f1a216fb22747a711673cb2cdfa5ef0dd06c44ab4a67f13243d9fbf3ded2cf43612712021-01-27 16:07:1253 mins ago0x50bba4554d67d9298428a9358648039f14971581OUT 0x0667eed0a0aab930af74a3dfedd263a73994f2160 BNB0.00170018
0xcea947407d81bfa5527bc5deea61e8044610be7d40d4661d2f2585f1e1c0d44443612252021-01-27 16:04:5455 mins ago0x50bba4554d67d9298428a9358648039f14971581OUT 0x004065d34c6b18ce4370ced1cebde94865dbfafe0 BNB0.01108876
0xf20c4e02c94335bc2fd9f8e14e10640b84388c860f80956563a846aa24ae709543608552021-01-27 15:46:181 hr 14 mins ago0x50bba4554d67d9298428a9358648039f14971581OUT Venus: Distribution0 BNB0.03415572
0x7434334b0f8ecbceec6b40cc3cef0108561456e03ab0da591610a33efd49872a43602372021-01-27 15:15:241 hr 45 mins ago0x50bba4554d67d9298428a9358648039f14971581OUT Venus: XVS Token0 BNB0.0052468
0x975b197bcc36e6b78cbaa0102d42912fbeb67abae0923be02f25aea9fba9aaef43602142021-01-27 15:14:151 hr 46 mins ago0x50bba4554d67d9298428a9358648039f14971581OUT 0x0667eed0a0aab930af74a3dfedd263a73994f2160 BNB0.00150128
0x15d066c47e274301ecd5e0bbf5a566d04197f470bcecc9d3e821f2cedfee1e9943602012021-01-27 15:13:361 hr 46 mins ago0x50bba4554d67d9298428a9358648039f14971581OUT Venus: Distribution0 BNB0.03537586
0xf4bca42ab32326c03e4f18a75fd9e321a040d1ba271aab2f147f5aff3a776f1343576902021-01-27 13:07:593 hrs 52 mins ago0x50bba4554d67d9298428a9358648039f14971581OUT Venus: XVS Token0 BNB0.0026234
0x85770dc02f007735d63189738e35bc5664d7a4d39e3685650011fee97cd654e343576392021-01-27 13:05:263 hrs 54 mins ago0x50bba4554d67d9298428a9358648039f14971581OUT 0x0667eed0a0aab930af74a3dfedd263a73994f2160 BNB0.00150128
0x322699c6270367d15a7c8c6807107b023c597c3f71b59645d5781dda40aca30c43563582021-01-27 12:01:234 hrs 59 mins ago0x50bba4554d67d9298428a9358648039f14971581OUT Venus: Distribution0 BNB0.03507586
0x570c448c90dc2182d65b1581de87dbe8fe213d41216aa4b52d0942ad8c3b7a5c43563462021-01-27 12:00:474 hrs 59 mins ago0x50bba4554d67d9298428a9358648039f14971581OUT 0x004065d34c6b18ce4370ced1cebde94865dbfafe0 BNB0.00195196
0x132d3e78a47a4f395bfe0b494260a45211a8232746a35e6a7d7c29271bf6358043563332021-01-27 12:00:085 hrs ago0x50bba4554d67d9298428a9358648039f14971581OUT 0x0667eed0a0aab930af74a3dfedd263a73994f2160 BNB0.00243008
0x79d7b7ae628ee9e00a89fb1e6dea66152b8597b6913b729df14989a59a08f27d43559392021-01-27 11:40:265 hrs 19 mins ago0x50bba4554d67d9298428a9358648039f14971581OUT 0x0667eed0a0aab930af74a3dfedd263a73994f2160 BNB0.00170018
0xd2ba05939e0eeeb3a5c82281fdef0777a031a2265c923f5c6eb6ddfda17d4f8643559262021-01-27 11:39:475 hrs 20 mins ago0x50bba4554d67d9298428a9358648039f14971581OUT 0x004065d34c6b18ce4370ced1cebde94865dbfafe0 BNB0.01242894
0xede3a44098eb77f1fd1e28c065def028c9fafb9d9dbf5e8526d9e0f065079a3c43539502021-01-27 10:00:546 hrs 59 mins ago0x50bba4554d67d9298428a9358648039f14971581OUT 0x004065d34c6b18ce4370ced1cebde94865dbfafe0 BNB0.0034125
0xd83c486a0eb93c7bfe96d02c47dd3ab02907e289493beb0a35bb360057bd3b1e43539382021-01-27 10:00:187 hrs ago0x50bba4554d67d9298428a9358648039f14971581OUT 0x0667eed0a0aab930af74a3dfedd263a73994f2160 BNB0.00259906
0x9e95029bf84b61c5d9c12bd4b41b1ed615ca5432ac49c257d3db9a15d394bf8443539182021-01-27 9:59:187 hrs 1 min ago0x50bba4554d67d9298428a9358648039f14971581OUT Venus: XVS Token0 BNB0.001810146
0x46d69e2a6634538cac9e68a56d3a754fa5b7ac0d85943505f845e012dd8e300943539022021-01-27 9:58:307 hrs 1 min ago0x50bba4554d67d9298428a9358648039f14971581OUT Venus: Distribution0 BNB0.03385572
0x5775ffb6fcd6e0524f20e747d25e89efd0344ca0ae0f4e5f17cb7f04cb5dfa1f43538972021-01-27 9:58:157 hrs 2 mins ago0x50bba4554d67d9298428a9358648039f14971581OUT 0x0667eed0a0aab930af74a3dfedd263a73994f2160 BNB0.00150128
0xc333bedfb17232252b5cba52cfce3ec8d19ba80f5108ca5e2b89a2033628978043472842021-01-27 4:27:0012 hrs 33 mins ago0x50bba4554d67d9298428a9358648039f14971581OUT 0x0667eed0a0aab930af74a3dfedd263a73994f2160 BNB0.00200018
0x1c5ae764a08e92923ca268bbd43842a8778550c7b0ccff2935b0dee3ca5d5b5543472772021-01-27 4:26:3912 hrs 33 mins ago0x50bba4554d67d9298428a9358648039f14971581OUT 0x004065d34c6b18ce4370ced1cebde94865dbfafe0 BNB0.01108876
0x3480240486c63b6d057ac494e5ebf123128588ac39ae0f348d13351abd5b0f9543470932021-01-27 4:17:2712 hrs 42 mins ago0x50bba4554d67d9298428a9358648039f14971581OUT Venus: XVS Token0 BNB0.001547806
0x1ddc8453d7b543202519e5f46c01a91eaaecb42dbc82960f6c7b2691ec3f078543470712021-01-27 4:16:2112 hrs 44 mins ago0x50bba4554d67d9298428a9358648039f14971581OUT 0x004065d34c6b18ce4370ced1cebde94865dbfafe0 BNB0.00207232
[ Download CSV Export 
Latest 2 internal transactions
Parent Txn Hash Block From To Value
0x5a5c33807096bbeb9138262c3e84a359879960bc51474f457b7a334178c4614537089452021-01-05 0:25:0822 days 16 hrs ago Venus: vBNB Token0x50bba4554d67d9298428a9358648039f149715816,171.9935 BNB
0xf4e875e5213701cdf395474c1d551dd3f14ff274fb1f8d1c17ec24e952c2a69937087532021-01-05 0:15:3222 days 16 hrs ago Venus: vBNB Token0x50bba4554d67d9298428a9358648039f149715816,500 BNB
[ Download CSV Export 
Loading

Contract Name:
0 BNB

Compiler Version
0

Optimization Enabled:
0 BNB

Other Settings:
-NA-
Block Transaction Gas Used Reward
Age Block Fee Address BC Fee Address Voting Power Jailed Incoming
Block Uncle Number Difficulty Gas Used Reward
Loading
Loading
Make sure to use the "Vote Down" button for any spammy posts, and the "Vote Up" for interesting conversations.